Hourly Data Report for August 19, 2021

LONDON CS
ONTARIO
Current Station Operator: ECCC - MSC

43°02'00.000" N
81°09'00.000" W
278.00 m
6144478
71622
WSN

Download Data

Hourly Data (August 2021)
Hourly Data Report for August 19, 2021
TIME
LST
Temp Definition
°C
Dew Point Definition
°C
Rel Hum Definition
%
Precip. Amount Definition
mm

Wind Dir Definition
10's deg

Wind Spd Definition
km/h
Visibility Definition
km
Stn Press Definition
kPa
Hmdx Definition


Wind Chill Definition


Weather Definition


00:00 21.1 20.3 95 0.0       98.65 29   LegendNANA
01:00 21.1 20.4 96 0.0       98.63 29   LegendNANA
02:00 21.1 20.1 94 0.0       98.61 29   LegendNANA
03:00 21.0 19.9 94 0.0       98.60 28   LegendNANA
04:00 20.5 19.8 96 0.0       98.60 28   LegendNANA
05:00 20.4 19.6 95 0.0       98.61 28   LegendNANA
06:00 20.5 19.7 95 0.0       98.61 28   LegendNANA
07:00 20.2 19.3 94 0.0       98.66 27   LegendNANA
08:00 21.2 19.7 91 0.0       98.65 29   LegendNANA
09:00 22.1 20.1 88 0.0       98.67 30   LegendNANA
10:00 24.1 18.9 73 0.0       98.69 31   LegendNANA
11:00 24.9 17.8 65 0.0       98.67 31   LegendNANA
12:00 26.1 16.6 56 0.0       98.65 31   LegendNANA
13:00 26.9 15.1 48 0.0       98.64 31   LegendNANA
14:00 27.3 16.2 51 0.0       98.60 32   LegendNANA
15:00 27.8 16.9 51 0.0       98.54 33   LegendNANA
16:00 27.8 15.9 48 0.0       98.50 32   LegendNANA
17:00 27.7 16.6 51 0.0       98.44 33   LegendNANA
18:00 26.7 19.1 63 0.0       98.43 34   LegendNANA
19:00 24.7 18.9 70 0.0       98.39 31   LegendNANA
20:00 23.0 18.8 77 0.0       98.43 30   LegendNANA
21:00 21.7 18.1 80 0.0       98.47 28   LegendNANA
22:00 20.3 17.9 86 0.0       98.47 26   LegendNANA
23:00 18.1 17.5 96 0.0       98.44     LegendNANA

Notes on Data Quality.

Legend

  • E = Estimated
  • M = Missing
  • NA = Not Available*
  • [empty] = Indicates an unobserved value
Date modified: